x

Central Caribbean - 210 Nm Sse Of Kingston, Jamaica (42058) Wave Buoy

7:50pm - Fri 3rd Jul 2015 All times are EST. -5 hours from GMT.

  • Sig Wave height 12.1ft
  • Swell Direction
  • Peak Period 9s
  • Average Period 7s
  • Wind
    31mph, 40mph gusts
  • Sea Temp 82°f
  • Air Temp 83°f
  • Sea Pressure 1010.6mb
  • Central Caribbean - 210 Nm Sse Of Kingston, Jamaica
  • Central Caribbean - 210 Nm Sse Of Kingston, Jamaica

More Historic Weather Station data

Upgrade to MSW Pro to gain access to the past 30 days of data for over 8000 Wavebouys and Weather Stations around the globe.

Join Pro

Comparision Forecast

View Surf forecast
   
Fri 07/03 7:50pm 12ft 9s 7s 31 40 mph 1010.6mb 82f 83f
6:50pm 11.5ft 8s 6s 31 38 mph 1010.1mb 82f 82f
5:50pm 12.5ft 8s 7s 29 38 mph 1009.8mb 82f 83f
4:50pm 12ft 9s 7s 31 36 mph 1009.8mb 82f 83f
3:50pm 12ft 8s 7s 31 38 mph 1009.8mb 82f 83f
2:50pm 11.5ft 8s 7s 29 34 mph 1010.1mb 82f 83f
1:50pm 13ft 9s 7s 29 36 mph 1010.8mb 82f 83f
12:50pm 14ft 8s 7s 29 36 mph 1011.6mb 82f 83f
11:50am 12.5ft 9s 7s 29 36 mph 1012.3mb 82f 83f
10:50am 13ft 9s 7s 29 38 mph 1012.6mb 82f 83f
9:50am 12.5ft 9s 7s 31 38 mph 1012.7mb 82f 83f
8:50am 12ft 9s 7s 29 36 mph 1012.7mb 82f 83f
7:50am 12.5ft 9s 7s 31 38 mph 1012.6mb 82f 83f
6:50am 13ft 8s 7s 29 36 mph 1012.4mb 82f 82f
5:50am 12.5ft 9s 7s 29 36 mph 1011.9mb 82f 82f
4:50am 13ft 9s 7s 27 36 mph 1011.6mb 82f 82f
3:50am 11.5ft 8s 7s 29 36 mph 1011.3mb 82f 82f
2:50am 11ft 9s 6s 29 38 mph 1011.5mb 82f 83f
1:50am 11.5ft 8s 7s 29 36 mph 1011.5mb 82f 83f
12:50am 11ft 8s 6s 29 34 mph 1012.2mb 82f 82f
Thu 07/02 11:50pm 11ft 8s 6s 29 36 mph 1012.8mb 82f 83f
10:50pm 10.5ft 9s 6s 27 31 mph 1013mb 82f 83f
9:50pm 10.5ft 8s 6s 29 36 mph 1012.7mb 82f 83f
8:50pm 10.5ft 8s 6s 29 38 mph 1012.4mb 82f 83f
7:50pm 11ft 9s 7s 29 36 mph 1012.1mb 82f 83f
6:50pm 11ft 9s 7s 29 36 mph 1011.9mb 82f 83f
5:50pm 11ft 8s 7s 29 36 mph 1011.5mb 82f 83f
4:50pm 11ft 9s 7s 27 31 mph 1011.1mb 82f 83f
3:50pm 11ft 9s 7s 27 34 mph 1011mb 82f 83f
2:50pm 11ft 8s 7s 29 36 mph 1011.4mb 82f 83f
1:50pm 12ft 9s 7s 29 36 mph 1012.1mb 82f 83f
12:50pm 13ft 8s 7s 29 36 mph 1012.4mb 82f 83f
11:50am 12ft 9s 7s 29 36 mph 1013.2mb 82f 83f
10:50am 12ft 9s 7s 29 38 mph 1013.4mb 82f 83f
9:50am 12ft 8s 7s 29 34 mph 1013.5mb 82f 83f
8:50am 12.5ft 9s 7s 29 38 mph 1013.4mb 82f 83f
7:50am 11ft 8s 6s 29 36 mph 1013.5mb 82f 83f
6:50am 11.5ft 8s 7s 29 36 mph 1013.1mb 82f 83f
5:50am 11ft 9s 7s 29 34 mph 1012.5mb 83f 83f
4:50am 12ft 8s 7s 31 36 mph 1012.4mb 83f 83f
3:50am 11ft 9s 6s 31 38 mph 1011.5mb 83f 83f
2:50am 12ft 8s 7s 31 40 mph 1011.5mb 83f 83f
1:50am 12ft 8s 7s 29 36 mph 1011.5mb 83f 83f
12:50am 12ft 9s 7s 29 36 mph 1012.6mb 83f 83f
Wed 07/01 11:50pm 10.5ft 9s 6s 29 34 mph 1013.1mb 83f 83f
10:50pm 10ft 8s 6s 29 36 mph 1013.4mb 83f 83f
9:50pm 11ft 8s 7s 29 34 mph 1013.4mb 83f 83f
8:50pm 11ft 8s 6s 27 34 mph 1012.9mb 83f 83f
7:50pm 10ft 8s 6s 27 36 mph 1012.5mb 83f 83f
6:50pm 10.5ft 9s 6s 29 36 mph 1012.1mb 83f 83f
5:50pm 11ft 8s 7s 29 36 mph 1011.6mb 83f 83f
4:50pm 10ft 8s 6s 29 34 mph 1011.4mb 83f 83f
3:50pm 10ft 8s 6s 29 36 mph 1011.2mb 83f 83f
2:50pm 9.5ft 8s 6s 29 34 mph 1012mb 83f 83f
1:50pm 10ft 9s 6s 27 34 mph 1012.7mb 83f 83f
12:50pm 10ft 8s 6s 29 34 mph 1013.1mb 83f 83f
11:50am 10ft 9s 6s 27 34 mph 1014mb 83f 83f
10:50am 10ft 8s 6s 29 36 mph 1014.5mb 83f 83f
9:50am 10.5ft 8s 6s 25 31 mph 1014.8mb 83f 83f
8:50am 10ft 9s 6s 25 31 mph 1014.4mb 83f 83f
7:50am 11ft 9s 6s 25 34 mph 1014.2mb 83f 83f
6:50am 10.5ft 8s 6s 29 34 mph 1014.1mb 83f 83f
5:50am 10.5ft 9s 6s 27 34 mph 1013.7mb 83f 83f
4:50am 11ft 8s 7s 29 31 mph 1013.4mb 83f 83f
3:50am 9ft 8s 6s 27 31 mph 1013.1mb 83f 82f
2:50am 10ft 8s 6s 29 34 mph 1013mb 83f 82f
1:50am 10ft 8s 6s 29 36 mph 1013.1mb 83f 83f
12:50am 9ft 8s 6s 29 36 mph 1014mb 83f 82f
Tue 06/30 11:50pm 9ft 8s 6s 29 34 mph 1014.7mb 83f 83f
10:50pm 8ft 9s 6s 27 34 mph 1015.2mb 83f 83f
9:50pm 9.5ft 8s 6s 27 31 mph 1015mb 83f 83f
8:50pm 8.5ft 8s 6s 27 34 mph 1014.7mb 83f 83f
7:50pm 8ft 7s 6s 27 31 mph 1014.1mb 83f 83f
6:50pm 9ft 8s 6s 27 34 mph 1013.5mb 83f 83f
5:50pm 8.5ft 8s 6s 25 29 mph 1013mb 83f 83f
4:50pm 8ft 8s 6s 25 29 mph 1013.2mb 83f 83f
3:50pm 8.5ft 8s 6s 27 31 mph 1012.9mb 83f 83f
2:50pm 8.5ft 8s 6s 25 29 mph 1013.4mb 83f 83f
1:50pm 9ft 9s 6s 25 31 mph 1014.3mb 83f 83f
12:50pm 8ft 8s 6s 25 31 mph 1014.8mb 83f 83f
11:50am 9ft 8s 6s 27 31 mph 1015.4mb 83f 83f
10:50am 10ft 8s 6s 25 31 mph 1015.8mb 83f 83f
9:50am 9ft 8s 6s 27 31 mph 1015.8mb 83f 83f
8:50am 8.5ft 8s 6s 27 34 mph 1015.5mb 83f 83f
7:50am 8.5ft 8s 6s 27 31 mph 1015.1mb 83f 83f
6:50am 8ft 7s 6s 25 31 mph 1014.8mb 83f 83f
5:50am 8.5ft 8s 6s 27 31 mph 1014.4mb 83f 83f
4:50am 8.5ft 8s 6s 25 34 mph 1014.2mb 83f 83f
3:50am 8.5ft 8s 6s 27 34 mph 1014mb 83f 82f
2:50am 8.5ft 8s 6s 22 29 mph 1014.2mb 83f 82f